sat.trackr.live / text

‹ back to catalog

STARLINK-36545

NORAD 67505 · 2026-012N

PAYLOAD ACTIVE UNKNOWN

§ Identity

Operator
Country
US
Launch date
2026-01-18
Launch site
AFETR
Launch vehicle
Mass (kg)
RCS (m²)

Purposes: comms

External: N2YO · Heavens-Above · Gunter

§ Orbital elements

Epoch: 2026-05-24T23:37:00.170400Z

Period
94.27 min
Inclination
43.0005°
Eccentricity
0.0002223
Mean motion
15.27574333 rev/d
Perigee alt
481.5 km
Apogee alt
484.6 km
Semi-major
6,861.2 km
B*
7.6967e-4
RAAN
243.2227°
Arg perigee
269.4027°
Mean anomaly
90.6569°
Rev number
1,943

§ Raw data

STARLINK-365451 67505U 26012N   26144.98402975  .00020975  00000+0  76967-3 0  99952 67505  43.0005 243.2227 0002223 269.4027  90.6569 15.27574333 19430

JSON: /api/v1/satellites/67505 · /tle

For live sub-satellite position, see the globe view (requires WebGL).

§ Visibility from observer

Set your observer location to see the next 7 days of passes ≥ 10°. The values pass through the URL so the page stays shareable.

No JS? Fill the form by hand. The geolocation button needs JavaScript.